Western Head, Nova Scotia

9:06 PM ADT on May 22, 2018 (GMT -0300)
Western Head

Weather History for CWWE - October, 2012

Change the Weather History Date:

Friday, October 26, 2012

  Actual Average Record
Temperature  
Mean Temperature 48 °F -  
Max Temperature 62 °F - - ()
Min Temperature 35 °F - - ()
Degree Days  
Heating Degree Days 16    
Moisture  
Dew Point 35 °F    
Average Humidity 65    
Maximum Humidity 86    
Minimum Humidity 31    
Precipitation  
Precipitation 0.00 in - - ()
Sea Level Pressure  
Sea Level Pressure 30.20 in    
Wind  
Wind Speed 7 mph ()    
Max Wind Speed 10 mph    
Max Gust Speed -    
T = Trace of Precipitation, MM = Missing Value Source: Averaged Metar Reports

Daily Weather History Graph

Daily Weather History Graph

Search for Another Location

Airport or City:

Astronomy

Oct. 26, 2012 Rise Set
Actual Time 7:47 AM ADT 6:16 PM ADT
Civil Twilight 7:18 AM ADT 6:46 PM ADT
Nautical Twilight 6:44 AM ADT 7:20 PM ADT
Astronomical Twilight 6:10 AM ADT 7:53 PM ADT
Moon 4:34 PM ADT (10/26) 4:34 AM ADT (10/26)
Length of Visible Light 11h 28m
Length of Day
10h 28m
Waxing Gibbous, 90% of the Moon is Illuminated
Oct 26
Waxing Gibbous
Oct 29
Full
Nov 6
Last Quarter
Nov 13
New
Nov 20
First Quarter

Hourly Weather History & Observations

Time (ADT) Temp. Windchill Dew Point Humidity Pressure Visibility Wind Dir Wind Speed Gust Speed Precip Events Conditions
12:00 AM 38 °F - 32 °F 70% 30.26 in - NNW 9.2 mph - -  
12:00 AM 37.9 °F 31.5 °F 31.6 °F 78% 30.26 in - NNW 9.2 mph - N/A   Unknown
1:00 AM 36.0 °F 29.6 °F 31.5 °F 84% 30.25 in - NNW 8.1 mph - N/A   Unknown
2:00 AM 36.1 °F 29.9 °F 31.8 °F 84% 30.24 in - NNW 8.1 mph - N/A   Unknown
3:00 AM 36 °F - 32 °F 80% 30.23 in - NW 8.1 mph - -  
3:00 AM 36.0 °F 29.6 °F 32.0 °F 86% 30.23 in - NW 8.1 mph - N/A   Unknown
4:00 AM 36.1 °F 28.7 °F 31.8 °F 84% 30.23 in - NW 10.4 mph - N/A   Unknown
5:00 AM 36.3 °F 29.5 °F 31.8 °F 84% 30.24 in - NNW 9.2 mph - N/A   Unknown
6:00 AM 37 °F - 32 °F 76% 30.23 in - NNW 10.4 mph - -  
6:00 AM 37.2 °F 30.0 °F 31.8 °F 81% 30.23 in - NNW 10.4 mph - N/A   Unknown
7:00 AM 37.0 °F 29.8 °F 31.6 °F 81% 30.23 in - NW 10.4 mph - N/A   Unknown
8:00 AM 36.7 °F 29.9 °F 31.5 °F 81% 30.24 in - NNW 9.2 mph - N/A   Unknown
9:00 AM 41 °F - 34 °F 67% 30.25 in - NW 8.1 mph - -  
9:00 AM 41.0 °F 35.8 °F 33.8 °F 76% 30.25 in - NW 8.1 mph - N/A   Unknown
10:00 AM 47.5 °F - 36.5 °F 66% 30.24 in - NNW 5.8 mph - N/A   Unknown
11:00 AM 52.0 °F - 37.4 °F 58% 30.24 in - NNW 9.2 mph - N/A   Unknown
12:00 PM 55 °F - 33 °F 31% 30.22 in - North 9.2 mph - -  
12:00 PM 55.4 °F - 33.1 °F 43% 30.22 in - North 9.2 mph - N/A   Unknown
1:00 PM 58.6 °F - 36.1 °F 43% 30.20 in - North 5.8 mph - N/A   Unknown
2:00 PM 60.3 °F - 33.6 °F 37% 30.18 in - NNW 5.8 mph - N/A   Unknown
3:00 PM 55 °F - 43 °F 54% 30.16 in - South 6.9 mph - -  
3:00 PM 55.4 °F - 43.0 °F 63% 30.16 in - South 6.9 mph - N/A   Unknown
4:00 PM 55.0 °F - 45.3 °F 70% 30.14 in - South 6.9 mph - N/A   Unknown
5:00 PM 54.0 °F - 45.5 °F 73% 30.14 in - SSW 6.9 mph - N/A   Unknown
6:00 PM 52 °F - 44 °F 64% 30.13 in - West 3.5 mph - -  
6:00 PM 51.8 °F - 43.5 °F 73% 30.13 in - West 3.5 mph - N/A   Unknown
7:00 PM 48.7 °F - 31.6 °F 52% 30.14 in - NW 6.9 mph - N/A   Unknown
8:00 PM 49.8 °F - 31.8 °F 50% 30.13 in - NW 9.2 mph - N/A   Unknown
9:00 PM 48 °F - 31 °F 39% 30.13 in - NNW 8.1 mph - -  
9:00 PM 48.4 °F - 30.7 °F 51% 30.13 in - NNW 8.1 mph - N/A   Unknown
10:00 PM 46.4 °F 43.5 °F 30.4 °F 54% 30.13 in - NNW 5.8 mph - N/A   Unknown
11:00 PM 46.2 °F 43.3 °F 30.0 °F 53% 30.12 in - NNW 5.8 mph - N/A   Unknown